This is the latest recevied weather packets stored in our database for station/object DL9GJ-6. If no packets are shown the sender has not sent any weather packets the latest 10 day(s).
| Time | Temp. | Humidity | Pressure | Rain* | Wind** | Luminosity | Snow |
|---|---|---|---|---|---|---|---|
| 1777474800 | 17.78° C | 38% | 1018.9 hPa | 0 mm | - | 122 W/m² | - |
| 1777474491 | 17.78° C | 38% | 1018.9 hPa | 0 mm | - | 84 W/m² | - |
| 1777474440 | 17.78° C | 38% | 1018.9 hPa | 0 mm | - | 84 W/m² | - |
| 1777474079 | 17.78° C | 38% | 1018.9 hPa | 0 mm | - | 75 W/m² | - |
| 1777473719 | 17.78° C | 38% | 1018.9 hPa | 0 mm | - | 97 W/m² | - |
| 1777473359 | 17.78° C | 40% | 1018.9 hPa | 0 mm | - | 231 W/m² | - |
| 1777473051 | 17.78° C | 39% | 1019 hPa | 0 mm | - | 133 W/m² | - |
| 1777473000 | 17.78° C | 39% | 1019 hPa | 0 mm | - | 401 W/m² | - |
| 1777472639 | 17.78° C | 39% | 1019 hPa | 0 mm | - | 390 W/m² | - |
| 1777472278 | 17.78° C | 39% | 1018.9 hPa | 0 mm | - | 276 W/m² | - |
| 1777471918 | 18.33° C | 38% | 1019 hPa | 0 mm | - | 270 W/m² | - |
| 1777471559 | 17.78° C | 41% | 1018.8 hPa | 0 mm | - | 387 W/m² | - |
| 1777471199 | 18.33° C | 39% | 1018.9 hPa | 0 mm | - | 504 W/m² | - |
| 1777470840 | 18.33° C | 41% | 1019 hPa | 0 mm | - | 505 W/m² | - |
| 1777470480 | 18.33° C | 38% | 1018.9 hPa | 0 mm | - | 513 W/m² | - |
| 1777470120 | 18.89° C | 37% | 1018.9 hPa | 0 mm | - | 526 W/m² | - |
| 1777469760 | 19.44° C | 37% | 1019 hPa | 0 mm | - | 544 W/m² | - |
| 1777469450 | 18.89° C | 36% | 1018.9 hPa | 0 mm | - | 571 W/m² | - |
| 1777469399 | 18.89° C | 35% | 1019 hPa | 0 mm | - | 597 W/m² | - |
| 1777469090 | 18.33° C | 36% | 1019 hPa | 0 mm | - | 629 W/m² | - |
| 1777469040 | 18.33° C | 36% | 1019 hPa | 0 mm | - | 629 W/m² | - |
| 1777468680 | 18.89° C | 38% | 1018.9 hPa | 0 mm | - | 661 W/m² | - |
| 1777468320 | 18.33° C | 37% | 1018.9 hPa | 0 mm | - | 694 W/m² | - |
| 1777467958 | 18.33° C | 38% | 1018.9 hPa | 0 mm | - | 722 W/m² | - |
| 1777467598 | 18.33° C | 37% | 1019 hPa | 0 mm | - | 742 W/m² | - |
* Rain latest hour (hover to see other rain measurements)
** Current wind speed in m/s (hover to see current wind gust speed)